QPF
0.00 0.00 0.00 0.00 0.00 0.00 0.00 0.00 0.00 0.00 0.00 0.00 0.00 0.00 0.00 0.00 0.00 0.00 0.00 0.00 0.00 0.00 0.00 0.00 0.00 0.00 0.00 0.00 0.01 0.02 0.03 0.05 0.06 0.03 0.02 0.02 0.02 0.03 0.03 0.03 0.03 0.04 0.05 0.05
0.00 0.00 0.00 0.00 0.00 0.00 0.00 0.00 0.00 0.00 0.00 0.00 0.00 0.00 0.00 0.00 0.00 0.00 0.00 0.00 0.00 0.00 0.00 0.00 0.00 0.00 0.00 0.00 0.00 0.01 0.01 0.02 0.02 0.02 0.02 0.02 0.01 0.02 0.01 0.01 0.02 0.03 0.03 0.03
0.00 0.00 0.00 0.00 0.00 0.00 0.00 0.00 0.00 0.00 0.00 0.00 0.00 0.00 0.00 0.00 0.00 0.00 0.00 0.00 0.00 0.00 0.00 0.00 0.00 0.00 0.00 0.00 0.00 0.00 0.00 0.00 0.00 0.01 0.01 0.01 0.01 0.01 0.01 0.01 0.01 0.01 0.01 0.02
0.00 0.00 0.00 0.00 0.00 0.00 0.00 0.00 0.00 0.00 0.00 0.00 0.00 0.00 0.00 0.00 0.00 0.00 0.00 0.00 0.00 0.00 0.00 0.00 0.00 0.00 0.00 0.00 0.00 0.00 0.00 0.00 0.00 0.00 0.00 0.00 0.00 0.00 0.00 0.00 0.01 0.01 0.01 0.02
0.00 0.00 0.00 0.00 0.00 0.00 0.00 0.00 0.00 0.00 0.00 0.00 0.00 0.00 0.00 0.00 0.00 0.00 0.00 0.00 0.00 0.00 0.00 0.00 0.00 0.00 0.00 0.00 0.00 0.00 0.00 0.00 0.00 0.00 0.00 0.00 0.00 0.00 0.00 0.00 0.00 0.01 0.02 0.02
0.00 0.00 0.00 0.00 0.00 0.00 0.00 0.00 0.00 0.00 0.00 0.00 0.00 0.00 0.00 0.00 0.00 0.00 0.00 0.00 0.00 0.00 0.00 0.00 0.00 0.00 0.00 0.00 0.00 0.00 0.00 0.00 0.00 0.00 0.00 0.00 0.00 0.00 0.00 0.00 0.00 0.01 0.01 0.02
0.00 0.00 0.00 0.00 0.00 0.00 0.00 0.00 0.00 0.00 0.00 0.00 0.00 0.00 0.00 0.00 0.00 0.00 0.00 0.00 0.00 0.00 0.00 0.00 0.00 0.00 0.00 0.00 0.00 0.00 0.00 0.00 0.00 0.00 0.00 0.00 0.00 0.00 0.00 0.00 0.00 0.00 0.00 0.00
0.00 0.00 0.00 0.00 0.00 0.00 0.00 0.00 0.00 0.00 0.00 0.00 0.00 0.00 0.00 0.00 0.00 0.00 0.00 0.00 0.00 0.00 0.00 0.00 0.00 0.00 0.00 0.00 0.00 0.00 0.00 0.00 0.00 0.00 0.00 0.00 0.00 0.00 0.00 0.00 0.00 0.00 0.00 0.00
0.00 0.00 0.00 0.00 0.00 0.00 0.00 0.00 0.00 0.00 0.00 0.00 0.00 0.00 0.00 0.00 0.00 0.00 0.00 0.00 0.00 0.00 0.00 0.00 0.00 0.00 0.00 0.00 0.00 0.00 0.00 0.00 0.00 0.00 0.00 0.00 0.00 0.00 0.00 0.00 0.00 0.00 0.00 0.00
0.00 0.00 0.00 0.00 0.00 0.00 0.00 0.00 0.00 0.00 0.00 0.00 0.00 0.00 0.00 0.00 0.00 0.00 0.00 0.00 0.00 0.00 0.00 0.00 0.00 0.00 0.00 0.00 0.00 0.00 0.00 0.00 0.00 0.00 0.00 0.00 0.00 0.00 0.00 0.00 0.00 0.00 0.00 0.00
0.00 0.00 0.00 0.00 0.00 0.00 0.00 0.00 0.00 0.00 0.00 0.00 0.00 0.00 0.00 0.00 0.00 0.00 0.00 0.00 0.00 0.00 0.00 0.00 0.00 0.00 0.00 0.00 0.00 0.00 0.00 0.00 0.00 0.00 0.00 0.00 0.00 0.00 0.00 0.00 0.00 0.00 0.00 0.00
0.00 0.00 0.00 0.00 0.00 0.00 0.00 0.00 0.00 0.00 0.00 0.00 0.00 0.00 0.00 0.00 0.00 0.00 0.00 0.00 0.00 0.00 0.00 0.00 0.00 0.00 0.00 0.00 0.00 0.00 0.00 0.00 0.00 0.00 0.00 0.00 0.00 0.00 0.00 0.00 0.00 0.00 0.00 0.00
0.00 0.00 0.00 0.00 0.00 0.00 0.00 0.00 0.00 0.00 0.00 0.00 0.00 0.00 0.00 0.00 0.00 0.00 0.00 0.00 0.00 0.00 0.00 0.00 0.00 0.00 0.00 0.00 0.00 0.00 0.00 0.00 0.00 0.00 0.00 0.00 0.00 0.00 0.00 0.00 0.00 0.00 0.00 0.00
0.00 0.00 0.00 0.00 0.00 0.00 0.00 0.00 0.00 0.00 0.00 0.00 0.00 0.00 0.00 0.00 0.00 0.00 0.00 0.00 0.00 0.00 0.00 0.00 0.00 0.00 0.00 0.00 0.00 0.00 0.00 0.00 0.00 0.00 0.00 0.00 0.00 0.00 0.00 0.00 0.00 0.00 0.00 0.00
0.00 0.00 0.00 0.00 0.00 0.00 0.00 0.00 0.00 0.00 0.00 0.00 0.00 0.00 0.00 0.00 0.00 0.00 0.00 0.00 0.00 0.00 0.00 0.00 0.00 0.00 0.00 0.00 0.00 0.00 0.00 0.00 0.00 0.00 0.00 0.00 0.00 0.00 0.00 0.00 0.00 0.00 0.00 0.00
0.00 0.00 0.00 0.00 0.00 0.00 0.00 0.00 0.00 0.00 0.00 0.00 0.00 0.00 0.00 0.00 0.00 0.00 0.00 0.00 0.00 0.00 0.00 0.00 0.00 0.00 0.00 0.00 0.00 0.00 0.00 0.00 0.00 0.00 0.00 0.00 0.00 0.00 0.00 0.00 0.00 0.00 0.00 0.00
0.00 0.00 0.00 0.00 0.00 0.00 0.00 0.00 0.00 0.00 0.00 0.00 0.00 0.00 0.00 0.00 0.00 0.00 0.00 0.00 0.00 0.00 0.00 0.00 0.00 0.00 0.00 0.00 0.00 0.00 0.00 0.00 0.00 0.00 0.00 0.00 0.00 0.00 0.00 0.00 0.00 0.00 0.00 0.00
0.00 0.00 0.00 0.00 0.00 0.00 0.00 0.00 0.00 0.00 0.00 0.00 0.00 0.00 0.00 0.00 0.00 0.00 0.00 0.00 0.00 0.00 0.00 0.00 0.00 0.00 0.00 0.00 0.00 0.00 0.00 0.00 0.00 0.00 0.00 0.00 0.00 0.00 0.00 0.00 0.00 0.00 0.00 0.00
0.00 0.00 0.00 0.00 0.00 0.00 0.00 0.00 0.00 0.00 0.00 0.00 0.00 0.00 0.00 0.00 0.00 0.00 0.00 0.00 0.00 0.00 0.00 0.00 0.00 0.00 0.00 0.00 0.00 0.00 0.00 0.00 0.00 0.00 0.00 0.00 0.00 0.00 0.00 0.00 0.00 0.00 0.00 0.00
0.00 0.00 0.00 0.00 0.00 0.00 0.00 0.00 0.00 0.00 0.00 0.00 0.00 0.00 0.00 0.00 0.00 0.00 0.00 0.00 0.00 0.00 0.00 0.00 0.00 0.00 0.00 0.00 0.00 0.00 0.00 0.00 0.00 0.00 0.00 0.00 0.00 0.00 0.00 0.00 0.00 0.00 0.00 0.00
0.00 0.00 0.00 0.00 0.00 0.00 0.00 0.00 0.00 0.00 0.00 0.00 0.00 0.00 0.00 0.00 0.00 0.00 0.00 0.00 0.00 0.00 0.00 0.00 0.00 0.00 0.00 0.00 0.00 0.00 0.00 0.00 0.00 0.00 0.00 0.00 0.00 0.00 0.00 0.00 0.00 0.00 0.00 0.00
0.00 0.00 0.00 0.00 0.00 0.00 0.00 0.00 0.00 0.00 0.00 0.00 0.00 0.00 0.00 0.00 0.00 0.00 0.00 0.00 0.00 0.00 0.00 0.00 0.00 0.00 0.00 0.00 0.00 0.00 0.00 0.00 0.00 0.00 0.00 0.00 0.00 0.00 0.00 0.00 0.00 0.00 0.00 0.00
0.00 0.00 0.00 0.00 0.00 0.00 0.00 0.00 0.00 0.00 0.00 0.00 0.00 0.00 0.00 0.00 0.00 0.00 0.00 0.00 0.00 0.00 0.00 0.00 0.00 0.00 0.00 0.00 0.00 0.00 0.00 0.00 0.00 0.00 0.00 0.00 0.00 0.00 0.00 0.00 0.00 0.00 0.00 0.00
0.00 0.00 0.00 0.00 0.00 0.00 0.00 0.00 0.00 0.00 0.00 0.00 0.00 0.00 0.00 0.00 0.00 0.00 0.00 0.00 0.00 0.00 0.00 0.00 0.00 0.00 0.00 0.00 0.00 0.00 0.00 0.00 0.00 0.00 0.00 0.00 0.00 0.00 0.00 0.00 0.00 0.00 0.00 0.00
0.00 0.00 0.00 0.00 0.00 0.00 0.00 0.00 0.00 0.00 0.00 0.00 0.00 0.00 0.00 0.00 0.00 0.00 0.00 0.00 0.00 0.00 0.00 0.00 0.00 0.00 0.00 0.00 0.00 0.00 0.00 0.00 0.00 0.00 0.00 0.00 0.00 0.00 0.00 0.00 0.00 0.00 0.00 0.00
0.00 0.00 0.00 0.00 0.00 0.00 0.00 0.00 0.00 0.00 0.00 0.00 0.00 0.00 0.00 0.00 0.00 0.00 0.00 0.00 0.00 0.00 0.00 0.00 0.00 0.00 0.00 0.00 0.00 0.00 0.00 0.00 0.00 0.00 0.00 0.00 0.00 0.00 0.00 0.00 0.00 0.00 0.00 0.00
0.01 0.01 0.01 0.00 0.00 0.00 0.00 0.00 0.00 0.00 0.00 0.00 0.00 0.00 0.00 0.00 0.00 0.00 0.00 0.00 0.00 0.00 0.00 0.00 0.00 0.00 0.00 0.00 0.00 0.00 0.00 0.00 0.00 0.00 0.00 0.00 0.00 0.00 0.00 0.00 0.00 0.00 0.00 0.00
MSLP
1022.45 1022.77 1023.07 1023.34 1023.58 1023.77 1023.93 1024.03 1024.08 1024.06 1023.99 1023.85 1023.66 1023.41 1023.11 1022.78 1022.42 1022.05 1021.68 1021.32 1020.96 1020.61 1020.27 1019.95 1019.63 1019.32 1019.01 1018.71 1018.40 1018.09 1017.77 1017.44 1017.10 1016.75 1016.39 1016.03 1015.67 1015.34 1015.03 1014.76 1014.53 1014.36 1014.23 1014.15
1022.46 1022.71 1022.92 1023.08 1023.20 1023.29 1023.36 1023.40 1023.41 1023.39 1023.34 1023.24 1023.10 1022.92 1022.69 1022.42 1022.12 1021.79 1021.45 1021.10 1020.77 1020.45 1020.15 1019.87 1019.61 1019.37 1019.14 1018.92 1018.69 1018.46 1018.20 1017.93 1017.63 1017.31 1016.98 1016.64 1016.30 1015.97 1015.68 1015.41 1015.19 1015.01 1014.87 1014.77
1022.44 1022.58 1022.65 1022.68 1022.67 1022.65 1022.62 1022.59 1022.58 1022.57 1022.56 1022.53 1022.48 1022.39 1022.25 1022.06 1021.82 1021.54 1021.23 1020.91 1020.59 1020.29 1020.02 1019.78 1019.58 1019.41 1019.25 1019.11 1018.97 1018.80 1018.61 1018.40 1018.14 1017.85 1017.54 1017.21 1016.87 1016.55 1016.25 1015.99 1015.76 1015.57 1015.43 1015.32
1022.36 1022.37 1022.31 1022.19 1022.05 1021.90 1021.78 1021.71 1021.68 1021.70 1021.74 1021.81 1021.86 1021.88 1021.84 1021.74 1021.58 1021.35 1021.08 1020.78 1020.47 1020.19 1019.93 1019.72 1019.56 1019.44 1019.35 1019.28 1019.21 1019.11 1018.99 1018.82 1018.61 1018.35 1018.05 1017.73 1017.40 1017.08 1016.78 1016.51 1016.28 1016.09 1015.94 1015.82
1022.20 1022.09 1021.89 1021.63 1021.37 1021.12 1020.93 1020.82 1020.79 1020.84 1020.96 1021.12 1021.28 1021.42 1021.49 1021.49 1021.41 1021.24 1021.01 1020.73 1020.43 1020.15 1019.90 1019.70 1019.56 1019.48 1019.44 1019.42 1019.41 1019.38 1019.31 1019.20 1019.02 1018.79 1018.52 1018.22 1017.90 1017.59 1017.29 1017.02 1016.80 1016.61 1016.45 1016.33
1021.90 1021.67 1021.37 1021.01 1020.65 1020.33 1020.09 1019.96 1019.95 1020.05 1020.24 1020.49 1020.77 1021.01 1021.20 1021.29 1021.29 1021.18 1020.99 1020.74 1020.45 1020.17 1019.93 1019.73 1019.60 1019.54 1019.53 1019.56 1019.59 1019.61 1019.59 1019.52 1019.39 1019.20 1018.96 1018.68 1018.38 1018.09 1017.81 1017.55 1017.33 1017.15 1017.00 1016.88
1021.38 1021.09 1020.71 1020.29 1019.88 1019.53 1019.28 1019.15 1019.17 1019.32 1019.58 1019.92 1020.29 1020.63 1020.91 1021.10 1021.18 1021.14 1020.99 1020.77 1020.51 1020.24 1020.00 1019.81 1019.69 1019.63 1019.64 1019.69 1019.76 1019.82 1019.84 1019.81 1019.72 1019.57 1019.37 1019.12 1018.86 1018.59 1018.33 1018.10 1017.90 1017.73 1017.59 1017.48
1020.61 1020.28 1019.88 1019.45 1019.05 1018.71 1018.48 1018.39 1018.45 1018.65 1018.97 1019.37 1019.81 1020.23 1020.60 1020.86 1021.01 1021.04 1020.95 1020.78 1020.55 1020.30 1020.08 1019.90 1019.79 1019.74 1019.76 1019.83 1019.91 1020.00 1020.05 1020.06 1020.01 1019.90 1019.73 1019.53 1019.31 1019.08 1018.86 1018.66 1018.49 1018.34 1018.22 1018.10
1019.59 1019.27 1018.90 1018.51 1018.16 1017.87 1017.70 1017.66 1017.77 1018.01 1018.38 1018.82 1019.31 1019.79 1020.21 1020.53 1020.75 1020.84 1020.82 1020.71 1020.53 1020.33 1020.14 1019.98 1019.88 1019.85 1019.88 1019.95 1020.05 1020.15 1020.22 1020.26 1020.24 1020.17 1020.05 1019.90 1019.72 1019.54 1019.36 1019.20 1019.06 1018.94 1018.83 1018.73
1018.39 1018.11 1017.81 1017.50 1017.24 1017.05 1016.95 1016.98 1017.14 1017.42 1017.82 1018.28 1018.79 1019.29 1019.74 1020.11 1020.38 1020.53 1020.58 1020.53 1020.42 1020.28 1020.14 1020.02 1019.95 1019.93 1019.97 1020.05 1020.15 1020.25 1020.34 1020.40 1020.41 1020.38 1020.30 1020.18 1020.05 1019.92 1019.78 1019.67 1019.56 1019.47 1019.39 1019.30
1017.09 1016.88 1016.68 1016.49 1016.35 1016.27 1016.28 1016.38 1016.59 1016.90 1017.31 1017.77 1018.27 1018.76 1019.22 1019.61 1019.92 1020.12 1020.23 1020.26 1020.22 1020.14 1020.06 1019.99 1019.95 1019.95 1020.00 1020.08 1020.18 1020.29 1020.39 1020.45 1020.48 1020.48 1020.43 1020.36 1020.27 1020.18 1020.09 1020.02 1019.95 1019.90 1019.84 1019.78
1015.82 1015.70 1015.61 1015.56 1015.55 1015.60 1015.71 1015.90 1016.15 1016.49 1016.88 1017.32 1017.79 1018.26 1018.70 1019.09 1019.41 1019.65 1019.81 1019.90 1019.93 1019.92 1019.89 1019.87 1019.87 1019.90 1019.95 1020.04 1020.14 1020.24 1020.33 1020.40 1020.44 1020.45 1020.43 1020.40 1020.35 1020.29 1020.25 1020.21 1020.18 1020.16 1020.14 1020.10
1014.66 1014.63 1014.66 1014.74 1014.87 1015.04 1015.26 1015.52 1015.82 1016.17 1016.55 1016.96 1017.38 1017.81 1018.21 1018.58 1018.90 1019.15 1019.35 1019.49 1019.58 1019.63 1019.66 1019.68 1019.71 1019.75 1019.82 1019.90 1019.98 1020.07 1020.16 1020.22 1020.27 1020.29 1020.29 1020.28 1020.26 1020.24 1020.23 1020.23 1020.24 1020.25 1020.26 1020.25
1013.67 1013.72 1013.85 1014.05 1014.30 1014.58 1014.90 1015.22 1015.57 1015.93 1016.29 1016.67 1017.05 1017.42 1017.78 1018.11 1018.42 1018.68 1018.89 1019.06 1019.19 1019.29 1019.36 1019.42 1019.47 1019.53 1019.59 1019.66 1019.73 1019.81 1019.88 1019.93 1019.98 1020.00 1020.02 1020.02 1020.03 1020.03 1020.05 1020.08 1020.11 1020.16 1020.20 1020.22
1012.84 1012.95 1013.16 1013.44 1013.79 1014.16 1014.55 1014.94 1015.32 1015.69 1016.05 1016.40 1016.73 1017.06 1017.38 1017.69 1017.97 1018.22 1018.45 1018.64 1018.80 1018.92 1019.02 1019.09 1019.16 1019.22 1019.28 1019.34 1019.40 1019.45 1019.50 1019.55 1019.59 1019.61 1019.63 1019.65 1019.67 1019.69 1019.72 1019.77 1019.83 1019.89 1019.96 1020.02
1012.12 1012.26 1012.51 1012.85 1013.25 1013.69 1014.13 1014.57 1014.98 1015.37 1015.73 1016.06 1016.38 1016.69 1016.98 1017.26 1017.53 1017.78 1018.01 1018.21 1018.38 1018.53 1018.64 1018.73 1018.81 1018.86 1018.91 1018.96 1019.00 1019.04 1019.08 1019.11 1019.14 1019.16 1019.18 1019.20 1019.22 1019.25 1019.29 1019.34 1019.40 1019.48 1019.57 1019.66
1011.49 1011.61 1011.86 1012.21 1012.63 1013.09 1013.57 1014.03 1014.47 1014.88 1015.25 1015.59 1015.91 1016.21 1016.50 1016.78 1017.05 1017.30 1017.54 1017.76 1017.95 1018.11 1018.24 1018.34 1018.42 1018.48 1018.53 1018.56 1018.59 1018.62 1018.64 1018.66 1018.68 1018.69 1018.70 1018.71 1018.73 1018.75 1018.78 1018.83 1018.89 1018.97 1019.06 1019.16
1010.93 1011.00 1011.20 1011.51 1011.91 1012.36 1012.84 1013.31 1013.76 1014.19 1014.58 1014.94 1015.28 1015.60 1015.90 1016.20 1016.48 1016.76 1017.02 1017.26 1017.47 1017.66 1017.81 1017.93 1018.02 1018.09 1018.14 1018.17 1018.19 1018.21 1018.23 1018.24 1018.24 1018.24 1018.24 1018.24 1018.24 1018.24 1018.25 1018.28 1018.32 1018.38 1018.46 1018.56
1010.48 1010.46 1010.57 1010.80 1011.14 1011.54 1011.98 1012.43 1012.89 1013.32 1013.73 1014.11 1014.48 1014.83 1015.17 1015.49 1015.82 1016.13 1016.43 1016.70 1016.95 1017.17 1017.35 1017.50 1017.62 1017.70 1017.76 1017.81 1017.83 1017.85 1017.86 1017.86 1017.86 1017.85 1017.83 1017.81 1017.78 1017.75 1017.73 1017.73 1017.73 1017.76 1017.82 1017.91
1010.23 1010.08 1010.08 1010.20 1010.43 1010.75 1011.12 1011.53 1011.96 1012.38 1012.79 1013.19 1013.58 1013.96 1014.34 1014.70 1015.07 1015.42 1015.76 1016.08 1016.38 1016.64 1016.87 1017.05 1017.20 1017.32 1017.41 1017.47 1017.51 1017.53 1017.54 1017.54 1017.53 1017.50 1017.47 1017.42 1017.37 1017.30 1017.25 1017.20 1017.17 1017.16 1017.18 1017.24
1010.27 1009.99 1009.85 1009.84 1009.95 1010.16 1010.44 1010.77 1011.14 1011.53 1011.92 1012.31 1012.70 1013.10 1013.49 1013.89 1014.29 1014.68 1015.06 1015.42 1015.76 1016.07 1016.34 1016.58 1016.77 1016.92 1017.04 1017.13 1017.19 1017.22 1017.24 1017.24 1017.22 1017.19 1017.14 1017.07 1016.98 1016.89 1016.79 1016.70 1016.63 1016.58 1016.56 1016.59
1010.67 1010.27 1009.99 1009.85 1009.83 1009.92 1010.09 1010.32 1010.61 1010.92 1011.26 1011.61 1011.98 1012.36 1012.74 1013.14 1013.55 1013.96 1014.36 1014.75 1015.13 1015.47 1015.78 1016.05 1016.29 1016.48 1016.63 1016.75 1016.83 1016.89 1016.92 1016.92 1016.90 1016.86 1016.80 1016.71 1016.61 1016.49 1016.36 1016.24 1016.13 1016.04 1015.98 1015.97
1011.43 1010.93 1010.55 1010.30 1010.16 1010.13 1010.18 1010.30 1010.48 1010.70 1010.95 1011.22 1011.52 1011.85 1012.19 1012.55 1012.93 1013.32 1013.71 1014.11 1014.49 1014.85 1015.19 1015.49 1015.75 1015.97 1016.15 1016.29 1016.39 1016.47 1016.51 1016.53 1016.51 1016.48 1016.41 1016.32 1016.20 1016.07 1015.93 1015.79 1015.65 1015.53 1015.45 1015.41
1012.47 1011.93 1011.49 1011.16 1010.93 1010.80 1010.74 1010.75 1010.81 1010.91 1011.05 1011.22 1011.41 1011.63 1011.89 1012.17 1012.48 1012.81 1013.17 1013.53 1013.89 1014.24 1014.57 1014.87 1015.14 1015.37 1015.57 1015.72 1015.85 1015.93 1015.99 1016.02 1016.02 1015.98 1015.93 1015.84 1015.73 1015.61 1015.47 1015.32 1015.18 1015.05 1014.95 1014.88
1013.66 1013.13 1012.69 1012.33 1012.05 1011.84 1011.70 1011.61 1011.55 1011.53 1011.54 1011.58 1011.65 1011.74 1011.87 1012.04 1012.24 1012.48 1012.75 1013.04 1013.34 1013.65 1013.94 1014.22 1014.47 1014.70 1014.89 1015.05 1015.18 1015.27 1015.34 1015.38 1015.39 1015.38 1015.34 1015.27 1015.18 1015.07 1014.95 1014.81 1014.68 1014.56 1014.45 1014.38
1014.80 1014.35 1013.95 1013.62 1013.34 1013.10 1012.91 1012.74 1012.59 1012.46 1012.34 1012.25 1012.17 1012.13 1012.12 1012.14 1012.22 1012.33 1012.49 1012.68 1012.89 1013.12 1013.35 1013.58 1013.79 1013.99 1014.15 1014.30 1014.42 1014.51 1014.58 1014.63 1014.65 1014.66 1014.64 1014.60 1014.54 1014.46 1014.36 1014.26 1014.14 1014.03 1013.94 1013.87
1015.73 1015.39 1015.09 1014.82 1014.58 1014.36 1014.15 1013.94 1013.73 1013.51 1013.29 1013.08 1012.88 1012.70 1012.54 1012.43 1012.37 1012.35 1012.38 1012.45 1012.56 1012.70 1012.84 1013.00 1013.15 1013.29 1013.42 1013.53 1013.63 1013.70 1013.77 1013.82 1013.85 1013.87 1013.87 1013.86 1013.83 1013.78 1013.72 1013.64 1013.56 1013.47 1013.39 1013.33
Thickness
5700 5696 5694 5688 5682 5678 5677 5677 5674 5669 5664 5666 5666 5662 5660 5658 5657 5654 5653 5651 5649 5647 5646 5644 5642 5640 5638 5637 5636 5635 5634 5633 5633 5634 5634 5635 5637 5638 5639 5640 5641 5643 5644 5645
5699 5696 5694 5689 5687 5683 5679 5677 5675 5671 5669 5677 5673 5670 5666 5664 5660 5657 5656 5654 5653 5652 5650 5648 5646 5643 5641 5640 5638 5637 5635 5633 5632 5633 5633 5633 5634 5635 5635 5635 5636 5637 5638 5638
5705 5697 5694 5695 5701 5692 5688 5687 5683 5677 5681 5682 5675 5672 5671 5669 5665 5662 5660 5658 5657 5655 5654 5652 5650 5648 5645 5643 5641 5639 5637 5634 5633 5633 5632 5631 5631 5631 5631 5631 5631 5631 5631 5632
5708 5699 5692 5712 5713 5708 5699 5697 5696 5693 5690 5686 5683 5681 5679 5676 5672 5669 5666 5663 5662 5660 5658 5657 5655 5653 5650 5647 5644 5641 5638 5635 5633 5632 5631 5630 5629 5628 5628 5627 5626 5626 5625 5625
5710 5707 5711 5714 5713 5709 5702 5702 5707 5701 5696 5692 5689 5684 5684 5683 5679 5675 5672 5668 5666 5664 5663 5661 5659 5656 5654 5651 5647 5643 5638 5635 5633 5631 5629 5628 5627 5627 5626 5625 5624 5623 5622 5621
5708 5705 5709 5723 5726 5723 5711 5706 5721 5713 5704 5699 5691 5685 5688 5689 5683 5679 5676 5673 5670 5668 5667 5665 5662 5659 5657 5653 5649 5643 5639 5636 5634 5631 5629 5628 5626 5625 5625 5624 5622 5622 5620 5619
5711 5711 5725 5733 5726 5718 5703 5721 5729 5722 5715 5707 5700 5701 5698 5693 5688 5683 5679 5676 5674 5672 5670 5667 5665 5663 5660 5656 5650 5645 5641 5638 5635 5633 5630 5628 5626 5624 5624 5623 5621 5620 5619 5617
5718 5714 5725 5732 5725 5722 5733 5737 5732 5728 5723 5715 5710 5705 5699 5695 5690 5686 5682 5679 5676 5674 5672 5670 5668 5666 5662 5657 5652 5648 5644 5640 5636 5633 5631 5629 5626 5625 5624 5622 5621 5619 5618 5616
5734 5740 5746 5743 5744 5747 5745 5739 5735 5731 5727 5720 5713 5706 5701 5698 5694 5690 5686 5683 5680 5677 5675 5673 5670 5668 5665 5660 5655 5651 5647 5643 5639 5636 5632 5630 5628 5626 5625 5623 5621 5619 5617 5616
5738 5748 5749 5745 5747 5745 5744 5741 5739 5735 5730 5724 5716 5711 5706 5702 5698 5693 5689 5686 5683 5680 5678 5676 5673 5670 5667 5663 5659 5655 5651 5647 5643 5640 5636 5633 5629 5628 5626 5623 5621 5619 5617 5615
5742 5753 5749 5748 5748 5748 5744 5741 5738 5735 5731 5726 5720 5715 5710 5705 5701 5697 5693 5689 5686 5683 5681 5679 5676 5673 5670 5666 5663 5659 5656 5652 5648 5643 5639 5635 5631 5627 5625 5621 5618 5617 5616 5615
5753 5764 5761 5762 5761 5755 5747 5741 5739 5735 5730 5727 5723 5717 5713 5708 5705 5700 5696 5692 5688 5686 5684 5682 5680 5677 5673 5669 5666 5664 5660 5656 5652 5647 5642 5639 5636 5632 5624 5621 5617 5615 5613 5612
5769 5767 5765 5762 5760 5757 5752 5747 5742 5738 5734 5728 5724 5720 5715 5710 5706 5702 5698 5694 5692 5689 5687 5685 5682 5679 5676 5672 5669 5666 5663 5659 5655 5652 5648 5644 5640 5637 5634 5627 5621 5618 5615 5613
5762 5759 5757 5758 5758 5756 5753 5749 5745 5740 5737 5732 5727 5722 5717 5712 5708 5703 5700 5698 5694 5691 5688 5686 5684 5681 5679 5676 5672 5669 5666 5661 5658 5655 5651 5648 5645 5642 5639 5636 5633 5629 5621 5616
5756 5757 5760 5760 5757 5753 5751 5747 5741 5738 5735 5731 5727 5722 5717 5713 5709 5706 5703 5700 5695 5692 5690 5688 5685 5683 5680 5677 5675 5672 5669 5665 5662 5659 5655 5652 5649 5646 5643 5640 5637 5634 5631 5625
5756 5753 5752 5751 5751 5749 5746 5744 5741 5738 5735 5731 5726 5722 5719 5715 5712 5707 5704 5699 5696 5694 5692 5689 5687 5685 5681 5678 5676 5673 5671 5665 5662 5661 5659 5656 5653 5650 5648 5645 5642 5640 5636 5633
5750 5747 5746 5746 5748 5748 5747 5746 5744 5741 5736 5731 5727 5724 5719 5715 5710 5706 5703 5700 5697 5696 5694 5691 5688 5686 5682 5679 5677 5675 5673 5670 5662 5662 5662 5660 5657 5655 5652 5649 5647 5644 5641 5636
5754 5757 5756 5756 5753 5749 5746 5745 5743 5741 5737 5733 5728 5723 5718 5713 5710 5708 5705 5701 5697 5695 5694 5692 5690 5686 5682 5680 5678 5677 5675 5673 5670 5667 5665 5662 5660 5658 5656 5653 5651 5648 5645 5641
5745 5748 5750 5751 5752 5750 5747 5744 5741 5739 5736 5732 5727 5722 5718 5715 5712 5709 5707 5701 5697 5695 5695 5693 5688 5685 5684 5680 5677 5675 5675 5673 5671 5669 5667 5663 5660 5661 5659 5657 5655 5653 5650 5647
5733 5737 5740 5742 5742 5742 5742 5740 5737 5734 5732 5729 5724 5720 5716 5714 5711 5708 5704 5700 5699 5698 5697 5694 5689 5686 5684 5681 5675 5675 5674 5673 5672 5670 5668 5666 5665 5664 5662 5660 5658 5657 5655 5652
5718 5723 5727 5730 5732 5732 5733 5733 5731 5728 5727 5724 5721 5718 5715 5713 5710 5706 5701 5698 5699 5696 5693 5688 5687 5685 5683 5680 5674 5674 5673 5672 5671 5670 5668 5667 5666 5665 5664 5663 5661 5659 5658 5656
5701 5708 5713 5717 5720 5722 5723 5724 5723 5722 5720 5718 5715 5714 5712 5709 5706 5702 5700 5698 5699 5693 5690 5688 5686 5683 5681 5676 5675 5673 5671 5670 5669 5668 5667 5666 5666 5665 5665 5664 5663 5662 5660 5658
5681 5689 5696 5701 5706 5710 5712 5712 5712 5712 5711 5710 5708 5707 5706 5704 5702 5697 5695 5696 5693 5689 5686 5686 5684 5679 5674 5672 5672 5671 5669 5668 5667 5666 5666 5665 5665 5664 5664 5663 5663 5662 5660 5659
5655 5664 5672 5680 5686 5690 5693 5696 5697 5699 5699 5699 5699 5699 5698 5695 5693 5693 5693 5690 5687 5683 5682 5681 5676 5673 5669 5670 5670 5668 5667 5666 5664 5663 5663 5662 5662 5662 5661 5661 5661 5660 5660 5658
5627 5636 5644 5651 5658 5663 5670 5675 5677 5679 5682 5684 5685 5686 5686 5686 5685 5684 5683 5681 5678 5674 5675 5673 5670 5667 5666 5667 5667 5665 5663 5662 5661 5660 5658 5658 5657 5657 5658 5658 5657 5658 5657 5657
5596 5604 5612 5620 5626 5633 5642 5649 5654 5658 5662 5664 5666 5668 5669 5669 5669 5670 5669 5669 5668 5665 5666 5666 5664 5661 5662 5662 5661 5660 5659 5658 5656 5653 5653 5653 5653 5653 5653 5653 5653 5653 5653 5654
5566 5574 5582 5591 5598 5605 5613 5620 5627 5632 5637 5642 5646 5648 5650 5652 5653 5654 5654 5655 5655 5655 5655 5655 5655 5655 5654 5654 5652 5652 5652 5651 5650 5649 5649 5648 5647 5647 5647 5647 5648 5648 5648 5648